"Timestamp","TZ","WindDir_Mean (deg)","WindSpd_Mean (km/h)","WindSpd_Min (km/h)","WindSpd_Max (km/h)","Temp_Mean (deg)","RH_Mean (%)","MSLP_Mean (hPa)","Rain_Acc (mm)","Rain_Intensity (mm/h)","Hail_Acc (hits/cm2)","Hail_Intensity (hits/cm2hr)","Solar_Mean (W/m2)"
2018/04/27 00:00:00.012,n,280,2.16,1.44,2.88,21,76.2,1015.62,0,0,0,0,0.033073
2018/04/27 00:01:00.000,n,239,2.16,1.8,2.52,21,76.4,1015.62,0,0,0,0,0.032196
2018/04/27 00:02:00.000,n,315,0.72,0.36,1.44,21,76.4,1015.62,0,0,0,0,0.031357
2018/04/27 00:03:00.005,n,212,0.72,0.36,1.08,21,77.1,1015.62,0,0,0,0,0.030479
2018/04/27 00:04:00.002,n,245,3.24,2.16,3.96,21,76.7,1015.62,0,0,0,0,0.032196
2018/04/27 00:05:00.000,n,238,4.32,2.88,4.68,21,76.6,1015.62,0,0,0,0,0.029602
2018/04/27 00:06:00.000,n,198,1.44,0.36,2.16,20.9,76.6,1015.62,0,0,0,0,0.030479
2018/04/27 00:07:00.010,n,229,3.6,3.24,3.96,20.9,76.6,1015.62,0,0,0,0,0.028725
2018/04/27 00:08:00.008,n,263,3.96,3.6,4.32,20.9,76.8,1015.62,0,0,0,0,0.026131
2018/04/27 00:09:00.005,n,252,5.04,4.68,5.4,20.9,76.8,1015.62,0,0,0,0,0.026131
2018/04/27 00:10:00.001,n,253,3.96,3.6,4.68,20.9,77.4,1015.62,0,0,0,0,0.031357
2018/04/27 00:11:00.000,n,267,4.32,3.96,5.4,20.8,77.2,1015.72,0,0,0,0,0.025253
2018/04/27 00:12:00.000,n,264,3.96,3.24,5.04,20.8,77.6,1015.72,0,0,0,0,0.032196
2018/04/27 00:13:00.000,n,185,2.16,1.8,2.52,20.8,77.4,1015.72,0,0,0,0,0.027008
2018/04/27 00:14:00.006,n,258,2.88,2.88,3.24,20.8,77.3,1015.72,0,0,0,0,0.021782
2018/04/27 00:15:00.004,n,255,3.96,3.6,3.96,20.8,77.3,1015.62,0,0,0,0,0.025253
2018/04/27 00:16:00.000,n,220,2.16,1.8,2.52,20.8,77.4,1015.62,0,0,0,0,0.030479
2018/04/27 00:17:00.000,n,235,3.24,2.88,3.6,20.7,77.5,1015.62,0,0,0,0,0.024376
2018/04/27 00:18:00.011,n,231,3.6,3.6,3.96,20.7,77.5,1015.62,0,0,0,0,0.027847
2018/04/27 00:19:00.000,n,237,3.6,3.24,3.6,20.7,77.5,1015.62,0,0,0,0,0.031357
2018/04/27 00:20:00.000,n,227,2.88,2.52,2.88,20.7,77.5,1015.62,0,0,0,0,0.026131
2018/04/27 00:21:00.001,n,275,1.44,0.36,2.16,20.7,77.6,1015.62,0,0,0,0,0.027847
2018/04/27 00:22:00.000,n,249,2.16,1.44,2.88,20.7,77.5,1015.62,0,0,0,0,0.020027
2018/04/27 00:23:00.000,n,239,3.6,3.6,3.96,20.7,77.5,1015.62,0,0,0,0,0.024376
2018/04/27 00:24:00.008,n,272,3.24,2.88,3.6,20.6,77.9,1015.62,0,0,0,0,0.025253
2018/04/27 00:25:00.005,n,269,2.88,2.52,3.24,20.6,77.6,1015.62,0,0,0,0,0.018272
2018/04/27 00:26:00.002,n,241,2.16,2.16,2.52,20.6,77.6,1015.62,0,0,0,0,0.016556
2018/04/27 00:27:00.015,n,236,0.36,0.36,0.72,20.6,77.5,1015.62,0,0,0,0,0.014801
2018/04/27 00:28:00.000,n,346,1.08,0.36,1.8,20.6,77.6,1015.62,0,0,0,0,0.020905
2018/04/27 00:29:00.000,n,204,1.8,1.8,2.16,20.6,77.5,1015.62,0,0,0,0,0.032196
2018/04/27 00:30:00.000,n,202,2.88,2.88,3.6,20.6,77.3,1015.62,0,0,0,0,0.033913
2018/04/27 00:31:00.003,n,209,3.24,2.88,3.24,20.6,77.2,1015.62,0,0,0,0,0.031319
2018/04/27 00:32:00.000,n,213,2.88,2.52,3.24,20.6,77.1,1015.62,0,0,0,0,0.029564
2018/04/27 00:33:00.000,n,230,2.88,2.88,3.6,20.6,77.1,1015.62,0,0,0,0,0.029564
2018/04/27 00:34:00.010,n,234,3.24,2.88,3.6,20.6,77.2,1015.62,0,0,0,0,0.032196
2018/04/27 00:35:00.007,n,221,3.96,3.6,4.32,20.6,77.2,1015.62,0,0,0,0,0.025215
2018/04/27 00:36:00.005,n,245,3.6,3.24,3.96,20.6,77.5,1015.62,0,0,0,0,0.025215
2018/04/27 00:37:00.002,n,250,3.96,2.16,4.68,20.6,78.1,1015.72,0,0,0,0,0.026093
2018/04/27 00:38:00.000,n,226,1.08,0.72,1.44,20.6,77.7,1015.72,0,0,0,0,0.033073
2018/04/27 00:39:00.000,n,260,3.96,3.6,4.68,20.6,77.5,1015.72,0,0,0,0,0.02697
2018/04/27 00:40:00.000,n,269,1.44,0.36,3.24,20.6,77.5,1015.72,0,0,0,0,0.024338
2018/04/27 00:41:00.007,n,223,2.16,1.8,2.16,20.5,77.5,1015.72,0,0,0,0,0.025215
2018/04/27 00:42:00.004,n,253,3.6,3.24,4.32,20.5,77.6,1015.72,0,0,0,0,0.026093
2018/04/27 00:43:00.001,n,229,3.96,3.6,4.32,20.5,77.7,1015.72,0,0,0,0,0.022621
2018/04/27 00:44:00.014,n,223,2.88,2.52,3.24,20.5,78.1,1015.72,0,0,0,0,0.028725
2018/04/27 00:45:00.012,n,208,2.52,2.52,3.6,20.5,77.9,1015.72,0,0,0,0,0.025215
2018/04/27 00:46:00.000,n,219,1.8,1.08,2.52,20.5,77.9,1015.72,0,0,0,0,0.023499
2018/04/27 00:47:00.000,n,237,5.04,3.96,6.12,20.5,77.9,1015.62,0,0,0,0,0.030441
2018/04/27 00:48:00.004,n,236,2.88,2.88,3.6,20.4,77.9,1015.62,0,0,0,0,0.022621
2018/04/27 00:49:00.003,n,195,2.88,2.16,2.88,20.4,77.9,1015.62,0,0,0,0,0.022621
2018/04/27 00:50:00.000,n,229,1.44,0.72,2.16,20.4,77.9,1015.62,0,0,0,0,0.022621
2018/04/27 00:51:00.000,n,244,1.44,1.08,1.8,20.4,77.9,1015.62,0,0,0,0,0.014763
2018/04/27 00:52:00.010,n,228,1.8,1.44,1.8,20.4,77.9,1015.62,0,0,0,0,0.025215
2018/04/27 00:53:00.008,n,325,2.16,1.44,2.52,20.4,78.2,1015.62,0,0,0,0,0.023499
2018/04/27 00:54:00.005,n,258,3.96,3.24,4.32,20.4,78.3,1015.62,0,0,0,0,0.024338
2018/04/27 00:55:00.000,n,268,4.68,4.32,5.04,20.4,78.1,1015.62,0,0,0,0,0.01915
2018/04/27 00:56:00.000,n,236,3.96,3.24,4.68,20.4,78.5,1015.62,0,0,0,0,0.020866
2018/04/27 00:57:00.000,n,238,4.32,3.6,4.32,20.4,78.4,1015.62,0,0,0,0,0.023499
2018/04/27 00:58:00.000,n,227,3.24,2.52,4.32,20.3,78.2,1015.62,0,0,0,0,0.025215
2018/04/27 00:59:00.007,n,263,1.8,1.44,2.16,20.3,78.4,1015.62,0,0,0,0,0.01915
2018/04/27 01:00:00.005,n,201,1.44,1.08,1.8,20.3,78.3,1015.62,0,0,0,0,0.01915
2018/04/27 01:01:00.002,n,244,3.96,3.6,4.68,20.3,78.3,1015.62,0,0,0,0,0.014763
2018/04/27 01:02:00.000,n,236,5.04,3.96,6.12,20.3,78.7,1015.62,0,0,0,0,0.016518
2018/04/27 01:03:00.011,n,246,3.24,2.88,4.32,20.3,78.7,1015.62,0,0,0,0,0.021744
2018/04/27 01:04:00.000,n,224,3.24,3.24,3.6,20.3,78.7,1015.52,0,0,0,0,0.017395
2018/04/27 01:05:00.000,n,252,4.32,3.96,4.32,20.3,78.6,1015.52,0,0,0,0,0.01564
2018/04/27 01:06:00.003,n,244,2.52,1.8,2.52,20.3,78.6,1015.52,0,0,0,0,0.024376
2018/04/27 01:07:00.000,n,244,1.8,1.44,2.16,20.3,78.6,1015.52,0,0,0,0,0.026093
2018/04/27 01:08:00.000,n,189,2.52,2.16,2.52,20.2,78.8,1015.52,0,0,0,0,0.027847
2018/04/27 01:09:00.007,n,128,1.08,1.08,1.44,20.2,78.7,1015.52,0,0,0,0,0.027847
2018/04/27 01:10:00.004,n,288,0.36,0.36,0.72,20.2,78.9,1015.52,0,0,0,0,0.028725
2018/04/27 01:11:00.001,n,204,2.52,1.8,2.88,20.2,79,1015.52,0,0,0,0,0.024376
2018/04/27 01:12:00.014,n,234,3.96,3.6,4.32,20.2,79,1015.52,0,0,0,0,0.028725
2018/04/27 01:13:00.000,n,217,3.24,2.88,3.6,20.2,79,1015.52,0,0,0,0,0.02697
2018/04/27 01:14:00.000,n,240,3.6,3.6,3.96,20.2,79.1,1015.52,0,0,0,0,0.029602
2018/04/27 01:15:00.000,n,238,5.04,5.04,5.4,20.2,79.1,1015.52,0,0,0,0,0.025253
2018/04/27 01:16:00.003,n,239,3.96,3.24,5.76,20.2,79.4,1015.52,0,0,0,0,0.027847
2018/04/27 01:17:00.001,n,259,4.32,3.24,5.04,20.3,79.9,1015.52,0,0,0,0,0.025253
2018/04/27 01:18:00.000,n,269,5.4,4.32,6.12,20.3,79.3,1015.52,0,0,0,0,0.02697
2018/04/27 01:19:00.011,n,257,3.6,3.24,3.96,20.3,79.3,1015.52,0,0,0,0,0.027847
2018/04/27 01:20:00.008,n,264,5.04,4.32,5.4,20.2,79.3,1015.42,0,0,0,0,0.028725
2018/04/27 01:21:00.005,n,236,3.24,3.24,3.6,20.2,79.3,1015.42,0,0,0,0,0.022621
2018/04/27 01:22:00.000,n,251,5.04,4.32,5.4,20.2,79.3,1015.42,0,0,0,0,0.021744
2018/04/27 01:23:00.001,n,216,4.68,3.96,5.4,20.2,79.6,1015.42,0,0,0,0,0.023499
2018/04/27 01:24:00.000,n,244,2.52,1.44,3.6,20.2,79.9,1015.42,0,0,0,0,0.023499
2018/04/27 01:25:00.000,n,248,4.68,4.32,5.04,20.2,79.9,1015.42,0,0,0,0,0.026093
2018/04/27 01:26:00.008,n,191,2.88,2.88,3.24,20.2,79.7,1015.42,0,0,0,0,0.022621
2018/04/27 01:27:00.006,n,220,3.96,3.24,5.4,20.2,79.8,1015.42,0,0,0,0,0.023499
2018/04/27 01:28:00.003,n,254,5.76,4.32,7.56,20.2,80.1,1015.42,0,0,0,0,0.028725
2018/04/27 01:29:00.000,n,251,5.04,3.24,6.48,20.2,80.1,1015.42,0,0,0,0,0.029602
2018/04/27 01:30:00.013,n,257,4.68,4.32,5.76,20.2,80.2,1015.42,0,0,0,0,0.023499
2018/04/27 01:31:00.000,n,261,6.48,5.4,7.2,20.2,79.8,1015.42,0,0,0,0,0.022621
2018/04/27 01:32:00.000,n,266,5.04,4.32,6.84,20.1,79.6,1015.42,0,0,0,0,0.020866
2018/04/27 01:33:00.000,n,273,7.56,6.84,8.28,20.1,79.5,1015.42,0,0,0,0,0.021744
2018/04/27 01:34:00.003,n,258,4.68,3.96,5.4,20.1,79.6,1015.42,0,0,0,0,0.021744
2018/04/27 01:35:00.000,n,286,4.68,3.6,6.12,20.1,79.7,1015.42,0,0,0,0,0.025253
2018/04/27 01:36:00.000,n,250,4.32,3.96,4.68,20,79.7,1015.42,0,0,0,0,0.020027
2018/04/27 01:37:00.011,n,233,5.4,4.32,5.76,20,79.8,1015.42,0,0,0,0,0.017395
2018/04/27 01:38:00.008,n,236,3.96,3.24,4.68,20.1,79.9,1015.42,0,0,0,0,0.020866
2018/04/27 01:39:00.005,n,169,2.88,0.72,4.32,20.1,80,1015.42,0,0,0,0,0.025253
2018/04/27 01:40:00.000,n,205,5.4,5.04,5.76,20.1,79.8,1015.42,0,0,0,0,0.020027
2018/04/27 01:41:00.000,n,231,5.04,3.96,5.4,20.1,80.1,1015.42,0,0,0,0,0.021744
2018/04/27 01:42:00.000,n,233,3.96,3.24,4.32,20.1,79.8,1015.42,0,0,0,0,0.021744
2018/04/27 01:43:00.000,n,245,4.32,3.24,5.04,20,79.9,1015.32,0,0,0,0,0.023499
2018/04/27 01:44:00.006,n,251,5.76,4.68,6.48,20,79.8,1015.32,0,0,0,0,0.024376
2018/04/27 01:45:00.004,n,246,6.12,5.4,6.48,20,79.6,1015.32,0,0,0,0,0.025253
2018/04/27 01:46:00.000,n,253,7.56,6.48,7.92,20,79.6,1015.32,0,0,0,0,0.01915
2018/04/27 01:47:00.013,n,263,7.2,6.48,7.92,20,79.7,1015.32,0,0,0,0,0.020866
2018/04/27 01:48:00.010,n,251,4.32,3.96,5.04,20,79.7,1015.32,0,0,0,0,0.020027
2018/04/27 01:49:00.000,n,259,6.84,6.48,7.92,20,79.7,1015.42,0,0,0,0,0.016518
2018/04/27 01:50:00.000,n,217,2.52,1.8,3.6,20,79.8,1015.42,0,0,0,0,0.020866
2018/04/27 01:51:00.002,n,263,5.4,3.6,6.12,20,80.1,1015.42,0,0,0,0,0.018272
2018/04/27 01:52:00.000,n,250,7.56,6.48,8.28,20,79.9,1015.32,0,0,0,0,0.025253
2018/04/27 01:53:00.000,n,259,5.76,3.6,7.2,20,80,1015.32,0,0,0,0,0.015678
2018/04/27 01:54:00.009,n,233,5.4,4.68,6.84,20,80,1015.32,0,0,0,0,0.025253
2018/04/27 01:55:00.003,n,248,7.92,6.84,9.36,20,80,1015.22,0,0,0,0,0.027847
2018/04/27 01:56:00.000,n,234,5.4,5.04,5.76,19.9,80,1015.32,0,0,0,0,0.02964
2018/04/27 01:57:00.013,n,243,4.32,3.6,5.04,19.9,80.1,1015.32,0,0,0,0,0.038338
2018/04/27 01:58:00.000,n,273,5.76,5.04,6.48,19.9,80.1,1015.32,0,0,0,0,0.031357
2018/04/27 01:59:00.000,n,270,5.76,5.76,6.48,19.9,80.2,1015.32,0,0,0,0,0.030479
2018/04/27 02:00:00.005,n,279,3.96,3.6,4.68,19.9,80.2,1015.32,0,0,0,0,0.026131
2018/04/27 02:01:00.002,n,273,4.32,3.96,5.4,19.9,80.2,1015.32,0,0,0,0,0.028763
2018/04/27 02:02:00.000,n,268,1.44,1.08,2.16,19.9,80.2,1015.32,0,0,0,0,0.034828
2018/04/27 02:03:00.000,n,245,2.88,2.52,3.6,19.8,80.2,1015.32,0,0,0,0,0.027847
2018/04/27 02:04:00.011,n,250,7.92,7.2,8.64,19.8,80.6,1015.32,0,0,0,0,0.02964
2018/04/27 02:05:00.009,n,266,9,7.92,10.08,19.8,80.6,1015.32,0,0,0,0,0.02964
2018/04/27 02:06:00.006,n,231,4.32,3.6,5.4,19.8,80.9,1015.32,0,0,0,0,0.032234
2018/04/27 02:07:00.000,n,239,4.68,4.32,4.68,19.8,80.5,1015.32,0,0,0,0,0.026131
2018/04/27 02:08:00.000,n,204,4.68,3.96,5.4,19.8,80.4,1015.32,0,0,0,0,0.031357
2018/04/27 02:09:00.000,n,268,1.08,0.72,1.44,19.8,80.5,1015.32,0,0,0,0,0.032234
2018/04/27 02:10:00.000,n,220,3.6,1.44,4.68,19.8,80.9,1015.32,0,0,0,0,0.032234
2018/04/27 02:11:00.007,n,252,4.32,3.96,4.68,19.8,81,1015.32,0,0,0,0,0.027847
2018/04/27 02:12:00.006,n,278,4.32,2.52,6.12,19.7,80.9,1015.32,0,0,0,0,0.034828
2018/04/27 02:13:00.003,n,278,5.04,4.68,5.76,19.7,80.7,1015.42,0,0,0,0,0.026131
2018/04/27 02:14:00.000,n,262,1.8,1.44,2.52,19.7,80.9,1015.42,0,0,0,0,0.026131
2018/04/27 02:15:00.014,n,270,3.6,3.24,3.96,19.7,81.3,1015.32,0,0,0,0,0.027847
2018/04/27 02:16:00.000,n,265,2.88,1.8,3.6,19.6,81.1,1015.42,0,0,0,0,0.02964
2018/04/27 02:17:00.000,n,240,4.68,2.88,6.48,19.6,81.4,1015.42,0,0,0,0,0.031357
2018/04/27 02:18:00.005,n,151,0.72,0.36,1.44,19.6,81.7,1015.42,0,0,0,0,0.023499
2018/04/27 02:19:00.004,n,230,4.68,3.96,5.04,19.6,81.6,1015.42,0,0,0,0,0.023499
2018/04/27 02:20:00.001,n,248,7.56,6.84,8.28,19.6,81.6,1015.42,0,0,0,0,0.027008
2018/04/27 02:21:00.000,n,241,3.24,2.16,4.32,19.6,81.7,1015.42,0,0,0,0,0.026131
2018/04/27 02:22:00.011,n,199,2.88,0.72,3.96,19.6,81.8,1015.42,0,0,0,0,0.026131
2018/04/27 02:23:00.008,n,260,2.52,1.44,5.04,19.6,81.9,1015.42,0,0,0,0,0.026131
2018/04/27 02:24:00.005,n,171,2.16,1.44,2.16,19.6,82.2,1015.42,0,0,0,0,0.020905
2018/04/27 02:25:00.000,n,278,6.12,4.68,9,19.6,82.4,1015.42,0,0,0,0,0.024414
2018/04/27 02:26:00.000,n,222,3.96,3.6,4.32,19.6,82.2,1015.42,0,0,0,0,0.024414
2018/04/27 02:27:00.000,n,282,6.48,4.68,8.64,19.5,82.2,1015.42,0,0,0,0,0.027008
2018/04/27 02:28:00.000,n,271,8.64,5.4,10.08,19.5,82.2,1015.42,0,0,0,0,0.024414
2018/04/27 02:29:00.000,n,238,4.32,3.96,4.68,19.5,82.4,1015.42,0,0,0,0,0.024414
2018/04/27 02:30:00.006,n,260,3.96,3.24,4.32,19.4,82.5,1015.42,0,0,0,0,0.020065
2018/04/27 02:31:00.004,n,254,4.68,4.32,4.68,19.4,82.6,1015.42,0,0,0,0,0.021782
2018/04/27 02:32:00.001,n,249,7.2,6.12,8.28,19.4,82.7,1015.42,0,0,0,0,0.022659
2018/04/27 02:33:00.015,n,255,6.48,5.76,8.28,19.4,82.9,1015.32,0,0,0,0,0.023499
2018/04/27 02:34:00.000,n,268,8.28,7.2,9,19.4,83,1015.32,0,0,0,0,0.026131
2018/04/27 02:35:00.000,n,242,5.4,5.04,5.4,19.4,83.1,1015.32,0,0,0,0,0.020905
2018/04/27 02:36:00.000,n,268,9.36,8.28,10.08,19.4,83.6,1015.32,0,0,0,0,0.022659
2018/04/27 02:37:00.004,n,216,4.32,3.96,5.04,19.4,83.2,1015.32,0,0,0,0,0.017433
2018/04/27 02:38:00.001,n,256,3.24,2.52,4.68,19.4,83.1,1015.42,0,0,0,0,0.018272
2018/04/27 02:39:00.000,n,247,3.6,2.88,4.68,19.3,83.3,1015.42,0,0,0,0,0.023499
2018/04/27 02:40:00.012,n,249,2.88,2.52,3.6,19.3,83.3,1015.42,0,0,0,0,0.020905
2018/04/27 02:41:00.009,n,273,5.4,4.68,7.2,19.3,83.3,1015.42,0,0,0,0,0.020905
2018/04/27 02:42:00.006,n,277,3.6,2.52,3.96,19.3,83.4,1015.42,0,0,0,0,0.037422
2018/04/27 02:43:00.000,n,277,3.6,3.24,5.04,19.2,83.5,1015.42,0,0,0,0,0.036545
2018/04/27 02:44:00.000,n,277,3.24,2.52,4.32,19.2,83.6,1015.42,0,0,0,0,0.040054
2018/04/27 02:45:00.000,n,244,5.04,4.68,5.4,19.2,83.6,1015.42,0,0,0,0,0.033112
2018/04/27 02:46:00.000,n,261,9.36,8.64,9.72,19.2,83.7,1015.42,0,0,0,0,0.0383
2018/04/27 02:47:00.000,n,234,6.84,6.12,6.84,19.2,84,1015.42,0,0,0,0,0.031319
2018/04/27 02:48:00.006,n,240,4.68,4.68,4.68,19.2,83.9,1015.52,0,0,0,0,0.026131
2018/04/27 02:49:00.004,n,285,3.24,1.44,6.12,19.2,84.4,1015.52,0,0,0,0,0.031319
2018/04/27 02:50:00.000,n,224,2.88,2.16,3.6,19.2,84.3,1015.52,0,0,0,0,0.032196
2018/04/27 02:51:00.014,n,199,1.8,1.08,2.52,19.2,84.4,1015.52,0,0,0,0,0.033112
2018/04/27 02:52:00.000,n,259,4.68,3.24,5.4,19.2,84.4,1015.52,0,0,0,0,0.030479
2018/04/27 02:53:00.000,n,238,5.04,3.96,6.48,19.2,84.3,1015.52,0,0,0,0,0.031319
2018/04/27 02:54:00.000,n,255,2.52,2.16,3.24,19.2,84.3,1015.52,0,0,0,0,0.028763
2018/04/27 02:55:00.002,n,263,4.32,3.6,5.76,19.1,84.3,1015.52,0,0,0,0,0.032196
2018/04/27 02:56:00.000,n,238,4.32,3.6,5.04,19.1,84.4,1015.52,0,0,0,0,0.029602
2018/04/27 02:57:00.000,n,260,3.96,3.24,5.04,19.1,84.5,1015.52,0,0,0,0,0.033112
2018/04/27 02:58:00.010,n,257,3.96,3.6,5.04,19.1,84.5,1015.52,0,0,0,0,0.028763
2018/04/27 02:59:00.008,n,266,5.76,5.04,5.76,19.1,84.5,1015.52,0,0,0,0,0.023499
2018/04/27 03:00:00.005,n,190,1.08,0,2.16,19.1,84.6,1015.42,0,0,0,0,0.02697
2018/04/27 03:01:00.002,n,236,4.68,3.96,5.76,19.1,85,1015.42,0,0,0,0,0.02697
2018/04/27 03:02:00.000,n,243,2.88,1.44,4.32,19.1,85,1015.42,0,0,0,0,0.028763
2018/04/27 03:03:00.000,n,251,6.48,5.04,9.72,19.1,85,1015.32,0,0,0,0,0.029602
2018/04/27 03:04:00.000,n,217,2.16,1.8,2.88,19.1,84.9,1015.32,0,0,0,0,0.021782
2018/04/27 03:05:00.006,n,212,2.88,2.16,3.24,19.1,85.1,1015.32,0,0,0,0,0.026131
2018/04/27 03:06:00.003,n,265,4.32,1.44,6.12,19.1,85.1,1015.32,0,0,0,0,0.027847
2018/04/27 03:07:00.001,n,262,7.2,6.12,7.92,19.1,85.1,1015.32,0,0,0,0,0.026131
2018/04/27 03:08:00.000,n,263,4.68,3.6,5.4,19.1,85.2,1015.32,0,0,0,0,0.027847
2018/04/27 03:09:00.011,n,239,5.04,4.68,5.4,19.1,84.9,1015.42,0,0,0,0,0.033112
2018/04/27 03:10:00.000,n,249,1.8,0.36,3.24,19,84.9,1015.42,0,0,0,0,0.027847
2018/04/27 03:11:00.000,n,263,6.48,5.76,7.56,19,85,1015.42,0,0,0,0,0.025253
2018/04/27 03:12:00.003,n,259,3.96,3.6,3.96,19,85,1015.52,0,0,0,0,0.027847
2018/04/27 03:13:00.000,n,276,6.12,4.68,6.84,19,85,1015.52,0,0,0,0,0.025253
2018/04/27 03:14:00.000,n,210,3.24,2.88,4.32,18.9,85.2,1015.52,0,0,0,0,0.02697
2018/04/27 03:15:00.010,n,229,4.68,3.6,6.12,18.9,85.3,1015.52,0,0,0,0,0.02697
2018/04/27 03:16:00.007,n,253,5.4,4.68,6.48,18.9,85.2,1015.52,0,0,0,0,0.027847
2018/04/27 03:17:00.004,n,266,6.84,6.12,8.64,19,85.3,1015.52,0,0,0,0,0.027847
2018/04/27 03:18:00.002,n,265,7.56,6.84,7.92,19,85.2,1015.52,0,0,0,0,0.022621
2018/04/27 03:19:00.000,n,251,6.12,5.04,7.2,19,85.3,1015.52,0,0,0,0,0.024376
2018/04/27 03:20:00.000,n,284,2.88,2.16,5.04,18.9,85.4,1015.52,0,0,0,0,0.026131
2018/04/27 03:21:00.000,n,259,6.12,5.04,7.2,18.9,85.2,1015.52,0,0,0,0,0.027847
2018/04/27 03:22:00.006,n,245,3.6,3.24,3.96,18.9,85.3,1015.52,0,0,0,0,0.023499
2018/04/27 03:23:00.005,n,255,3.6,2.88,5.4,18.9,85.2,1015.42,0,0,0,0,0.025253
2018/04/27 03:24:00.002,n,263,6.12,5.76,6.84,18.9,85.2,1015.42,0,0,0,0,0.037422
2018/04/27 03:25:00.000,n,238,5.04,2.52,6.48,18.9,85.3,1015.42,0,0,0,0,0.037422
2018/04/27 03:26:00.012,n,259,5.76,3.24,7.2,18.9,85.3,1015.42,0,0,0,0,0.031319
2018/04/27 03:27:00.009,n,242,5.04,4.68,5.04,18.8,85.3,1015.42,0,0,0,0,0.031319
2018/04/27 03:28:00.000,n,265,6.48,5.76,7.2,18.8,85.3,1015.42,0,0,0,0,0.029602
2018/04/27 03:29:00.003,n,256,5.76,5.04,6.12,18.8,85.3,1015.42,0,0,0,0,0.031319
2018/04/27 03:30:00.001,n,249,7.2,6.84,7.56,18.8,85.5,1015.42,0,0,0,0,0.030441
2018/04/27 03:31:00.000,n,257,5.76,5.04,6.12,18.9,85.5,1015.42,0,0,0,0,0.031319
2018/04/27 03:32:00.000,n,252,5.76,3.6,8.28,18.9,85.5,1015.42,0,0,0,0,0.029602
2018/04/27 03:33:00.008,n,169,2.16,1.08,2.52,18.9,85.4,1015.42,0,0,0,0,0.030441
2018/04/27 03:34:00.005,n,225,2.16,2.16,2.52,18.9,85.5,1015.42,0,0,0,0,0.02697
2018/04/27 03:35:00.003,n,198,3.96,2.88,4.68,18.9,85.4,1015.42,0,0,0,0,0.026093
2018/04/27 03:36:00.001,n,202,2.52,2.52,2.88,18.8,85.4,1015.42,0,0,0,0,0.027847
2018/04/27 03:37:00.000,n,166,3.24,2.52,3.6,18.8,85.4,1015.42,0,0,0,0,0.033951
2018/04/27 03:38:00.000,n,217,3.96,3.24,4.32,18.8,85.5,1015.42,0,0,0,0,0.023499
2018/04/27 03:39:00.000,n,196,2.52,1.8,3.6,18.8,85.5,1015.42,0,0,0,0,0.031319
2018/04/27 03:40:00.005,n,273,5.04,2.52,6.84,18.8,85.5,1015.42,0,0,0,0,0.027847
2018/04/27 03:41:00.003,n,258,3.6,2.88,4.32,18.8,85.4,1015.32,0,0,0,0,0.034828
2018/04/27 03:42:00.000,n,262,5.04,3.6,5.4,18.8,85.5,1015.32,0,0,0,0,0.030441
2018/04/27 03:43:00.012,n,236,3.6,2.88,4.32,18.9,86,1015.32,0,0,0,0,0.029602
2018/04/27 03:44:00.009,n,265,1.44,0.72,2.16,18.9,85.7,1015.32,0,0,0,0,0.029602
2018/04/27 03:45:00.006,n,266,5.4,3.24,8.28,18.9,85.7,1015.22,0,0,0,0,0.030441
2018/04/27 03:46:00.000,n,267,7.2,4.32,9.72,18.9,86,1015.22,0,0,0,0,0.031319
2018/04/27 03:47:00.000,n,268,7.56,6.84,7.92,18.9,86,1015.12,0,0,0,0,0.026093
2018/04/27 03:48:00.000,n,268,9.72,5.76,12.24,19,85.8,1015.12,0,0,0,0,0.032196
2018/04/27 03:49:00.000,n,237,5.76,5.04,7.2,18.9,85.5,1015.12,0,0,0,0,0.028725
2018/04/27 03:50:00.008,n,256,5.04,4.68,5.76,18.9,85.5,1015.12,0,0,0,0,0.026093
2018/04/27 03:51:00.005,n,255,6.84,5.4,7.56,18.9,85.2,1015.22,0,0,0,0,0.023499
2018/04/27 03:52:00.002,n,263,6.48,6.12,6.84,18.8,85.3,1015.12,0,0,0,0,0.023499
2018/04/27 03:53:00.000,n,256,5.04,4.32,5.76,18.8,85.3,1015.12,0,0,0,0,0.025253
2018/04/27 03:54:00.012,n,247,2.16,1.08,3.24,18.8,85.3,1015.22,0,0,0,0,0.026093
2018/04/27 03:55:00.000,n,257,4.32,3.96,4.68,18.8,85.4,1015.12,0,0,0,0,0.021744
2018/04/27 03:56:00.000,n,246,5.04,4.32,6.48,18.8,85.4,1015.12,0,0,0,0,0.031319
2018/04/27 03:57:00.003,n,237,5.4,3.6,6.84,18.8,85.7,1015.12,0,0,0,0,0.030441
2018/04/27 03:58:00.000,n,248,4.68,4.32,5.4,18.8,85.8,1015.12,0,0,0,0,0.032196
2018/04/27 03:59:00.000,n,252,6.48,6.12,6.84,18.8,85.5,1015.12,0,0,0,0,0.027847
2018/04/27 04:00:00.000,n,259,4.68,4.32,5.04,18.8,85.9,1015.12,0,0,0,0,0.020027
2018/04/27 04:01:00.008,n,252,6.84,6.48,7.2,18.8,85.7,1015.12,0,0,0,0,0.021744
2018/04/27 04:02:00.006,n,239,4.68,2.88,5.4,18.8,85.8,1015.12,0,0,0,0,0.020027
2018/04/27 04:03:00.004,n,257,5.4,4.32,5.4,18.8,85.6,1015.12,0,0,0,0,0.024376
2018/04/27 04:04:00.001,n,249,0.72,0.36,1.08,18.8,85.7,1015.12,0,0,0,0,0.029602
2018/04/27 04:05:00.000,n,224,2.16,1.44,2.88,18.8,85.6,1015.22,0,0,0,0,0.027847
2018/04/27 04:06:00.000,n,153,6.84,5.76,8.28,18.8,85.6,1015.22,0,0,0,0,0.023499
2018/04/27 04:07:00.000,n,196,6.84,6.48,7.2,18.8,85.6,1015.32,0,0,0,0,0.020027
2018/04/27 04:08:00.007,n,159,7.56,6.84,8.28,18.8,85.7,1015.32,0,0,0,0,0.022621
2018/04/27 04:09:00.004,n,168,8.64,7.92,9.36,18.8,85.7,1015.32,0,0,0,0,0.022621
2018/04/27 04:10:00.000,n,184,7.2,6.84,7.56,18.8,85.8,1015.32,0,0,0,0,0.028687
2018/04/27 04:11:00.010,n,150,2.52,1.8,3.24,18.8,85.9,1015.32,0,0,0,0,0.039177
2018/04/27 04:12:00.008,n,182,5.04,3.96,6.12,18.8,85.9,1015.42,0,0,0,0,0.033073
2018/04/27 04:13:00.000,n,161,2.88,1.8,3.96,18.8,85.9,1015.42,0,0,0,0,0.033073
2018/04/27 04:14:00.002,n,190,5.04,4.32,5.76,18.8,86,1015.42,0,0,0,0,0.031319
2018/04/27 04:15:00.000,n,178,5.76,4.68,6.12,18.8,86,1015.32,0,0,0,0,0.032196
2018/04/27 04:16:00.000,n,239,3.6,2.88,4.68,18.8,86,1015.32,0,0,0,0,0.031319
2018/04/27 04:17:00.000,n,244,5.4,4.68,5.76,18.8,86,1015.32,0,0,0,0,0.029564
2018/04/27 04:18:00.007,n,240,5.76,3.24,8.64,18.8,86.5,1015.32,0,0,0,0,0.033913
2018/04/27 04:19:00.005,n,254,9.36,7.92,11.88,18.8,86.1,1015.32,0,0,0,0,0.038261
2018/04/27 04:20:00.002,n,245,5.4,5.04,5.4,18.8,86.1,1015.32,0,0,0,0,0.031319
2018/04/27 04:21:00.016,n,199,2.52,1.44,2.88,18.8,86.1,1015.32,0,0,0,0,0.029564
2018/04/27 04:22:00.000,n,244,2.52,2.16,3.24,18.8,86.2,1015.32,0,0,0,0,0.032196
2018/04/27 04:23:00.000,n,236,5.4,4.68,6.12,18.8,86.1,1015.32,0,0,0,0,0.030479
2018/04/27 04:24:00.000,n,282,6.12,5.76,6.84,18.8,86.3,1015.32,0,0,0,0,0.030479
2018/04/27 04:25:00.005,n,265,5.4,4.68,6.48,18.8,86,1015.32,0,0,0,0,0.032196
2018/04/27 04:26:00.002,n,243,6.48,5.76,6.84,18.8,86,1015.32,0,0,0,0,0.027847
2018/04/27 04:27:00.001,n,254,7.2,5.4,7.92,18.8,86.1,1015.32,0,0,0,0,0.033913
2018/04/27 04:28:00.000,n,250,6.84,5.76,8.64,18.8,86.1,1015.32,0,0,0,0,0.036545
2018/04/27 04:29:00.012,n,247,8.28,7.92,8.64,18.8,86,1015.32,0,0,0,0,0.034828
2018/04/27 04:30:00.010,n,253,6.48,6.12,7.2,18.8,86.4,1015.32,0,0,0,0,0.034828
2018/04/27 04:31:00.000,n,247,5.4,5.04,6.12,18.8,86.3,1015.32,0,0,0,0,0.036545
2018/04/27 04:32:00.003,n,245,5.76,4.68,6.84,18.8,86,1015.42,0,0,0,0,0.031319
2018/04/27 04:33:00.001,n,263,3.96,3.6,4.32,18.8,86,1015.42,0,0,0,0,0.027847
2018/04/27 04:34:00.000,n,261,3.6,1.08,4.68,18.8,85.9,1015.42,0,0,0,0,0.033913
2018/04/27 04:35:00.000,n,256,3.6,3.24,3.96,18.8,85.9,1015.52,0,0,0,0,0.031319
2018/04/27 04:36:00.009,n,278,7.92,7.2,8.28,18.7,85.8,1015.42,0,0,0,0,0.030479
2018/04/27 04:37:00.005,n,247,5.76,5.4,6.12,18.7,85.8,1015.42,0,0,0,0,0.031319
2018/04/27 04:38:00.002,n,252,6.12,5.76,6.48,18.7,85.8,1015.42,0,0,0,0,0.035667
2018/04/27 04:39:00.016,n,247,4.32,2.52,6.12,18.7,85.9,1015.42,0,0,0,0,0.028687
2018/04/27 04:40:00.000,n,268,7.2,6.48,8.64,18.7,85.8,1015.42,0,0,0,0,0.033073
2018/04/27 04:41:00.000,n,275,8.28,5.04,11.52,18.7,86,1015.42,0,0,0,0,0.034828
2018/04/27 04:42:00.000,n,250,6.12,5.4,6.84,18.7,86,1015.52,0,0,0,0,0.030479
2018/04/27 04:43:00.004,n,248,6.48,6.12,6.84,18.7,85.8,1015.52,0,0,0,0,0.031319
2018/04/27 04:44:00.002,n,252,5.76,4.32,8.28,18.7,85.9,1015.52,0,0,0,0,0.027847
2018/04/27 04:45:00.000,n,237,5.4,5.04,6.12,18.7,86.1,1015.52,0,0,0,0,0.025253
2018/04/27 04:46:00.011,n,229,3.96,2.52,6.12,18.7,86.1,1015.62,0,0,0,0,0.024338
2018/04/27 04:47:00.009,n,267,5.04,4.32,7.2,18.7,86.3,1015.62,0,0,0,0,0.031319
2018/04/27 04:48:00.005,n,245,4.32,3.6,5.04,18.7,86.3,1015.62,0,0,0,0,0.033913
2018/04/27 04:49:00.000,n,259,4.68,4.32,5.4,18.7,86,1015.62,0,0,0,0,0.02697
2018/04/27 04:50:00.000,n,274,6.12,5.76,7.92,18.7,85.9,1015.72,0,0,0,0,0.029564
2018/04/27 04:51:00.000,n,255,6.12,5.76,6.48,18.7,85.8,1015.72,0,0,0,0,0.029564
2018/04/27 04:52:00.000,n,246,5.76,5.04,6.84,18.6,85.8,1015.72,0,0,0,0,0.02697
2018/04/27 04:53:00.007,n,167,3.24,2.52,5.04,18.6,85.8,1015.72,0,0,0,0,0.024338
2018/04/27 04:54:00.005,n,274,4.32,3.96,5.04,18.6,85.9,1015.72,0,0,0,0,0.032196
2018/04/27 04:55:00.002,n,279,1.44,1.08,1.44,18.6,85.9,1015.82,0,0,0,0,0.028687